Regional Weather Roundup
Issued by NWS

Home | Current Version | Previous Version | Text Only | Print | Product List | Glossary Off
Versions: 1 2 3 4 5 6 7 8 9 10 11 12 13 14 15 16 17 18 19 20 21 22 23 24 25 26 27

000
ASUS43 KDMX 241007
RWRIA

WEATHER ROUNDUP FOR IOWA
NATIONAL WEATHER SERVICE DES MOINES IA
500 AM CDT FRI OCT 24 2014

NOTE: "FAIR" INDICATES FEW OR NO CLOUDS BELOW 12,000 FEET WITH NO
SIGNIFICANT WEATHER AND/OR OBSTRUCTIONS TO VISIBILITY.

* - THESE STATIONS ARE NOT NWS STATIONS...THUS NOT UNDER NWS
QUALITY CONTROL.  THEY ALSO DO NOT REPORT WEATHER SUCH
AS PRECIPITATION OR FOG.

IAZ001>003-012>014-020>022-031>034-043>046-241100-
   NORTHWEST IOWA

CITY           SKY/WX    TMP DP  RH WIND       PRES   REMARKS
CARROLL *      CLEAR     54  54 100 SW7       29.95F
CHEROKEE *     MOCLDY    55  52  88 S9        29.90F
DENISON *      CLEAR     55  55 100 S8        29.93F
LE MARS *      CLEAR     55  52  88 SW6       29.88S
ORANGE CITY *  CLEAR     55  50  82 S8        29.87F
SHELDON *      CLEAR     52  48  87 S7        29.87S
SIOUX CITY     MOCLDY    53  50  89 SE8       29.89F
SPENCER        PTCLDY    51  46  83 S12       29.89F
STORM LAKE *   CLEAR     52  50  93 S12       29.93F
$$

IAZ055>058-069>071-079>083-090>094-241100-
   SOUTHWEST IOWA

CITY           SKY/WX    TMP DP  RH WIND       PRES   REMARKS
AUDUBON *      CLOUDY    55  52  88 S8        29.98F HAZE
CLARINDA *     FOG       59  59 100 S7        30.02F VSB 1/4
COUNCIL BLFS * CLEAR     59  59 100 S10       29.96F
CRESTON *      FOG       59  59 100 S9        30.02F VSB 0
HARLAN  *      CLOUDY    50  50 100 S6        30.00F FOG
LAMONI         FOG       58  58 100 SW8       30.03F VSB 1/4
RED OAK *      CLOUDY    59  59 100 S8        30.00S FOG
SHENANDOAH *   FOG       57  57 100 S7        30.01S VSB 1/2
$$

IAZ047>049-059>061-072>074-084-241100-
   CENTRAL IOWA

CITY           SKY/WX    TMP DP  RH WIND       PRES   REMARKS
AMES           FOG       47  46  97 SE3       29.99F VSB 1/2
ANKENY *       FOG       52  52 100 S5        30.00F VSB<1/4
CHARITON *     FOG       57  57 100 SW7       30.03S VSB 1/4
DES MOINES     FOG       55  54  96 S8        30.00F VSB 1/8
GRINNELL*      FOG       48  48 100 S3        30.04R VSB 1/4
KNOXVILLE *    FOG       57  55  94 SW7       30.02S VSB 1/4
MARSHALLTOWN   FOG       46  46 100 S6        30.01R VSB 1/4
PELLA *        FOG       55  55 100 S3        30.04S VSB 1/4
PERRY *        FOG       50  48  93 S7        29.99S VSB 3/4
$$

IAZ004>006-015-016-023>025-035-036-241100-
   NORTH CENTRAL IOWA

CITY           SKY/WX    TMP DP  RH WIND       PRES   REMARKS
ALGONA *       CLEAR     52  48  87 S13       29.93F
CLARION *      CLEAR     50  50 100 S9        29.96F
ESTHERVILLE    MOCLDY    46  42  86 S9        29.90F
FORT DODGE *   MOCLDY    52  46  82 S6        29.96F
FOREST CITY *  CLEAR     43  43 100 SE3       29.95F FOG
IOWA FALLS *   FOG       45  45 100 SE5       30.00F VSB 1/4
$$

IAZ007>011-017>019-026>030-037>042-050>054-066-241100-
   NORTHEAST IOWA

CITY           SKY/WX    TMP DP  RH WIND       PRES   REMARKS
CEDAR RAPIDS   FOG       42  42 100 CALM      30.03S VSB 1/4
CHARLES CITY * FOG       46  46 100 SE7       30.00F VSB 0
CLINTON *      CLOUDY    45  43  93 CALM      30.08S VSB 1/4
DECORAH *      FOG       50  50 100 S5        30.01S VSB 0
DUBUQUE        FOG       50  50 100 CALM      30.04F VSB 1/4
MONTICELLO *   FOG       48  48 100 CALM      30.04R VSB 0
OELWEIN *      FOG       48  48 100 S6        30.03S VSB 0
WATERLOO       FOG       47  47 100 S3        30.01S VSB 1/4
$$

IAZ064-065-067-068-078-241100-
   EAST CENTRAL IOWA

CITY           SKY/WX    TMP DP  RH WIND       PRES   REMARKS
DAVENPORT      CLOUDY    48  46  93 CALM      30.06S FOG
IOWA CITY      FOG       47  47 100 SE3       30.06S VSB 1/4
MT. PLEASANT * FOG       52  52 100 CALM      30.06S VSB<1/4
MUSCATINE *    FOG       50  48  93 S3        30.06S VSB 0
QUAD CITIES    CLOUDY    48  47  96 CALM      30.06S
$$

IAZ062-063-075>077-085>089-095>099-241100-
   SOUTHEAST IOWA

CITY           SKY/WX    TMP DP  RH WIND       PRES   REMARKS
BURLINGTON     CLOUDY    54  52  93 CALM      30.06S
FAIRFIELD *    CLOUDY    46  46 100 S6        30.05S
FORT MADISON * FOG       54  54 100 CALM      30.07S VSB 1/4
KEOKUK *       FOG       54  54 100 S3        30.06F VSB 0
OSKALOOSA *    LGT RAIN  52  52 100 SW7       30.04S VSB 1/4
CENTERVILLE *  FOG       55  55 100 SW5       30.06S VSB 3/4
OTTUMWA        FOG       52  51  97 SW6       30.04S VSB 1/4
WASHINGTON *   FOG       48  48 100 CALM      30.04S VSB 0
$$

ABBREVIATIONS USED IN REMARKS
   TC - TEMPERATURES IN CELSIUS
  WCI - WIND CHILL INDEX
   HX - HEAT INDEX
  VSB - VISIBILITY
$$




USA.gov is the U.S. government's official web portal to all federal, state and local government web resources and services.